Location: Unspecified
(0.0000°N, 0.0000°E)
Time: 21:08:13
(UTC+00:00)

RS-13 - Visible Passes

Search period start: 22 January 2022 00:00
Search period end: 01 February 2022 00:00
Orbit: 960 x 1005 km, 82.9° (Epoch: 22 January)

Date Brightness Start Highest point End Pass type
(mag) Time Alt. Az. Time Alt. Az. Time Alt. Az.
27 Jan 8.2 21:35:29 10° SSW 21:35:29 10° SSW 21:35:29 10° SSW visible
28 Jan 7.8 20:18:26 10° SSE 20:18:29 10° SSE 20:18:29 10° SSE visible
29 Jan 7.5 20:45:01 10° S 20:46:22 17° S 20:46:22 17° S visible
30 Jan 7.6 21:12:38 10° SSW 21:14:18 19° SSW 21:14:18 19° SSW visible
31 Jan 7.2 19:55:44 10° SSE 19:57:26 17° SE 19:57:26 17° SE visible
31 Jan 8.1 21:41:26 10° SW 21:42:17 13° SW 21:42:17 13° SW visible
